CAPE
888 786 417 304 184 0 21 20 137 49 78 201 355 465 498 660 861 911 1193 1144 864 1018 1152 954 711 610 632 717 530 1074 661 383 408 278 470 10 283 468 913 1258 695 780 584
1122 704 511 330 235 0 0 6 49 183 195 215 386 716 761 948 1067 958 1017 931 745 875 1018 667 814 899 831 568 697 761 612 309 536 298 327 444 590 702 863 779 1008 1433 919
1574 1176 759 448 120 17 11 60 97 278 678 727 1053 963 879 963 1011 1079 886 838 575 649 846 634 601 483 570 754 768 1003 728 977 683 656 310 504 509 1024 1125 1414 1318 1384 1308
2080 2063 1631 1259 783 458 483 805 921 873 990 1025 1081 1279 1430 702 233 559 961 1038 1208 894 707 558 611 465 423 393 560 944 705 518 338 325 457 355 364 226 986 830 814 1049 1316
2019 1983 1975 1820 1782 1475 1262 1328 1368 1373 1283 1411 1484 1621 1618 1270 914 434 674 755 892 852 828 708 600 502 389 246 526 728 718 539 523 328 187 198 100 274 513 773 870 566 761
1039 1081 1111 983 967 1102 1198 1267 1285 1338 1675 1594 1462 1461 1381 1556 1138 166 290 463 666 734 767 785 765 579 357 217 310 212 499 498 262 445 228 174 135 290 186 158 329 1 0
322 451 580 488 473 327 432 398 491 630 867 904 887 1043 1047 1039 869 159 116 495 778 835 986 1080 1370 1893 994 659 571 357 275 164 266 288 250 251 379 135 2 0 189 70 0
331 528 404 678 514 623 475 302 421 484 505 589 521 468 619 797 677 356 232 190 477 622 807 1093 907 976 1032 986 904 623 415 357 288 134 316 520 443 450 130 57 141 18 0
799 857 1100 957 882 811 651 499 362 266 155 244 297 364 86 98 283 247 66 49 85 32 357 325 232 318 444 871 593 552 485 466 253 342 242 62 104 51 618 84 5 0 0
508 581 661 678 653 671 519 482 493 381 242 242 210 275 319 241 156 96 0 22 68 105 44 68 343 260 415 337 107 347 406 365 283 67 4 1 0 0 0 21 0 0 0
417 422 510 590 505 263 341 473 516 475 521 526 546 352 241 230 284 327 48 4 133 138 103 0 0 0 0 0 0 30 416 192 299 173 77 15 22 0 0 0 0 0 0
265 296 274 96 96 37 25 20 28 27 23 18 76 98 122 79 95 117 68 0 74 218 100 0 0 0 0 1 0 0 0 0 0 178 242 155 150 163 84 2 0 0 0
494 389 222 220 177 105 79 5 0 0 0 1 7 41 56 77 1 6 0 0 0 1 1 0 0 0 0 0 0 1 0 0 3 108 223 95 111 240 132 68 24 0 36
139 132 110 86 1 0 0 0 0 0 0 0 0 2 9 14 0 3 11 1 0 0 0 0 1 0 0 0 0 1 1 1 2 2 85 26 73 1 0 0 42 90 59
87 56 25 16 6 0 0 0 0 0 0 0 0 0 0 0 0 0 0 26 76 36 29 16 0 0 0 0 0 1 1 1 2 13 95 102 74 9 1 13 108 89 20
0 11 14 1 0 0 0 0 0 0 0 0 0 0 0 0 0 0 0 0 0 0 0 0 0 0 0 0 0 0 0 0 0 14 52 182 1 0 12 3 6 60 73
0 0 0 0 10 22 20 24 10 2 0 0 0 0 0 0 0 0 0 0 0 0 0 0 0 0 0 0 0 0 0 0 1 3 28 34 7 1 0 0 0 32 85
0 0 0 4 5 4 12 38 31 16 2 1 3 1 0 0 0 0 0 0 0 0 0 0 0 0 0 0 0 17 0 0 45 114 92 38 1 0 1 15 31 59 83
0 0 0 0 6 1 7 3 18 31 49 53 30 10 2 5 0 1 1 0 0 0 0 0 0 0 0 0 0 8 110 87 153 226 130 0 0 0 2 17 21 7 51
0 7 6 1 3 1 11 38 22 26 39 35 53 11 6 0 0 0 0 0 0 0 0 0 0 0 0 0 0 11 272 212 390 248 121 0 0 0 8 11 3 0 0
0 0 6 7 7 8 11 2 3 26 43 39 23 10 9 0 0 0 5 14 0 0 0 0 0 0 2 5 69 180 486 475 697 476 190 10 0 0 3 0 0 0 0
4 4 6 8 7 3 5 5 1 0 36 30 13 11 6 0 1 0 0 0 10 46 121 146 116 101 128 158 81 219 557 740 683 622 245 60 1 0 0 0 0 0 0
5 5 5 5 5 2 2 0 1 11 14 14 19 7 1 1 1 0 0 0 2 7 129 173 153 123 283 350 393 370 545 728 576 686 405 122 29 0 0 0 0 0 0
5 6 6 7 7 7 4 3 1 0 0 0 1 1 4 4 5 5 3 1 3 0 0 44 99 149 331 246 303 711 539 796 518 517 234 52 4 0 0 0 0 0 0
7 8 9 10 11 13 14 13 14 12 11 10 10 8 7 15 10 13 10 10 10 5 112 196 169 225 109 187 334 611 615 764 599 269 99 22 0 0 1 0 0 0 0
4 7 10 8 8 9 11 11 12 15 18 15 14 14 15 13 11 14 11 7 12 9 58 228 347 269 228 266 290 438 622 0 8 19 104 57 14 1 0 0 0 0 0
CIN
-180 -177 -222 -222 -220 0 -222 -150 -37 -122 -147 -88 -28 -22 -22 -35 -52 -57 -47 -45 -60 -54 -41 -48 -68 -73 -71 -51 -70 -61 -79 -113 -68 -124 -142 -316 -219 -149 -122 -72 -132 -93 -132
-149 -176 -179 -214 -231 0 0 -290 -256 -141 -136 -170 -118 -70 -28 -32 -46 -49 -39 -45 -39 -36 -46 -91 -52 -45 -42 -60 -71 -58 -67 -107 -67 -80 -87 -103 -111 -138 -68 -91 -89 -47 -97
-72 -109 -176 -178 -250 -160 -199 -253 -239 -193 -113 -90 -41 -25 -25 -61 -62 -54 -63 -56 -47 -46 -43 -51 -54 -67 -48 -54 -52 -50 -77 -53 -84 -75 -98 -96 -109 -64 -53 -69 -68 -58 -58
-29 -27 -39 -52 -92 -127 -105 -34 -26 -36 -33 -32 -35 -27 -22 -75 -129 -99 -45 -38 -40 -26 -28 -46 -47 -51 -47 -52 -36 -32 -74 -77 -111 -110 -113 -94 -96 -115 -80 -49 -53 -109 -71
-28 -17 -12 -14 -18 -26 -26 -26 -25 -26 -38 -38 -33 -17 -13 -34 -40 -63 -62 -54 -53 -48 -50 -42 -59 -58 -56 -86 -45 -46 -48 -54 -62 -74 -97 -130 -155 -90 -69 -77 -65 -87 -84
-67 -41 -31 -41 -40 -25 -22 -17 -17 -18 -11 -8 -11 -13 -17 -15 -25 -173 -116 -100 -74 -71 -53 -54 -46 -44 -61 -77 -48 -96 -66 -73 -89 -61 -63 -76 -119 -88 -157 -172 -114 -4 0
-102 -84 -54 -63 -61 -58 -56 -50 -36 -29 -20 -15 -15 -15 -12 -21 -30 -183 -198 -87 -56 -70 -53 -48 -40 -20 -44 -61 -68 -97 -125 -173 -123 -95 -60 -79 -78 -113 -55 0 -134 -178 0
-132 -78 -64 -22 -27 -37 -38 -42 -37 -38 -25 -28 -24 -31 -24 -22 -25 -68 -103 -128 -77 -66 -56 -37 -57 -58 -62 -59 -56 -70 -110 -127 -119 -159 -92 -69 -82 -83 -172 -112 -133 -201 0
-64 -63 -32 -22 -26 -28 -30 -37 -44 -38 -86 -61 -46 -41 -109 -110 -65 -75 -195 -207 -179 -222 -81 -95 -120 -117 -101 -49 -62 -64 -80 -93 -134 -92 -103 -172 -136 -185 -53 -151 -69 0 0
-108 -105 -82 -61 -50 -30 -34 -32 -41 -52 -63 -40 -42 -37 -36 -56 -129 -204 0 -327 -187 -152 -229 -185 -73 -112 -87 -77 -119 -79 -58 -65 -110 -196 -202 -14 0 0 0 -194 0 0 0
-100 -112 -89 -97 -101 -126 -81 -48 -36 -36 -25 -17 -15 -33 -66 -93 -88 -95 -379 -52 -207 -177 -157 0 0 0 0 0 0 -77 -54 -77 -65 -91 -153 -224 -201 0 0 0 0 0 0
-93 -71 -103 -193 -193 -230 -301 -327 -307 -265 -249 -256 -201 -180 -164 -230 -215 -241 -351 0 -311 -163 -212 0 0 0 0 0 0 0 0 0 0 -38 -19 -53 -71 -73 -101 -67 0 0 0
-51 -40 -85 -97 -112 -145 -176 -326 0 0 0 -30 -33 -251 -224 -235 -11 -115 0 0 0 -32 -47 0 0 0 0 0 0 0 0 0 0 -19 -1 -27 -62 -56 -95 -66 -109 -175 -170
-128 -130 -151 -169 -4 0 0 0 0 0 0 0 0 -37 -24 -50 0 -65 -127 -25 0 0 0 -4 -29 0 0 0 0 0 0 0 0 0 -25 -71 -88 -23 0 0 -44 -36 -60
-92 -72 -99 -25 -17 0 0 0 0 0 0 0 0 0 0 0 0 0 0 -229 -336 -359 -231 -274 0 0 0 0 0 0 0 0 0 -32 -31 -23 -60 -89 -55 -49 -4 -7 -47
0 -55 -33 -33 0 -20 0 0 0 0 0 0 0 0 0 0 0 0 0 0 0 0 0 0 0 0 0 0 0 0 0 0 -2 -91 -74 -12 0 0 -86 -20 -69 -3 -18
0 0 0 0 -46 -28 -33 -27 -23 -44 -10 0 0 0 0 0 0 0 0 0 0 0 0 0 0 0 0 0 0 0 0 0 -22 -6 -75 -55 -12 0 -13 0 0 -2 -15
0 0 -2 -10 -14 -31 -23 -26 -25 -14 -7 -7 -22 -10 0 0 0 0 0 0 0 0 0 0 0 0 0 0 0 -236 0 0 -76 -56 -63 -38 0 0 0 -64 -66 -34 -16
0 -1 -2 0 -17 -12 -36 -37 -24 -21 -19 -12 -22 -31 -57 -37 0 0 0 0 0 0 0 0 0 0 0 0 0 -228 -98 -105 -91 -50 -67 0 0 0 -36 -23 -21 -23 -18
0 -2 -2 -2 -3 -13 -17 -3 -6 -9 -11 -14 -21 -22 -44 0 0 -13 0 0 0 0 0 0 0 0 0 0 0 -223 -58 -62 -39 -70 -91 0 0 0 -93 -69 -89 0 -15
0 0 -1 0 0 0 -1 0 -25 -9 -2 -6 -13 -22 -16 0 0 0 -13 -21 -2 0 0 0 0 0 -74 -105 -201 -112 -34 -27 -25 -42 -94 -169 0 0 -129 0 0 0 0
0 0 0 0 -1 0 0 0 0 0 -5 -3 -4 -10 -15 -3 -2 -3 0 0 -32 -81 -22 -21 -46 -73 -62 -89 -178 -78 -44 -34 -31 -12 -80 -124 -14 0 0 0 0 0 0
0 0 0 0 0 -1 0 0 0 0 -12 -3 -1 -4 -5 -6 -6 0 0 -2 -8 -4 -19 -7 -19 -31 -29 -55 -84 -85 -48 -51 -77 -42 -47 -94 -101 0 0 0 0 0 0
0 0 0 0 0 0 0 0 -1 0 0 0 -3 -1 0 0 0 0 0 -3 -15 -3 -1 -68 -41 -40 -39 -58 -77 -61 -72 -82 -111 -79 -124 -145 -131 0 0 0 0 0 0
0 0 0 0 0 0 0 0 0 0 0 0 0 0 0 0 0 0 -2 -1 -3 -11 -12 -2 -12 -44 -69 -55 -96 -59 -77 -87 -107 -134 -143 -192 0 0 -140 0 0 0 0
0 0 0 0 0 0 0 0 0 0 0 0 0 0 0 0 0 0 0 0 -3 0 -2 -1 -3 -36 -72 -68 -90 -67 -60 0 -90 -137 -151 -169 -226 -1 0 0 0 0 0
Wind_Speed
7 6 5 0 3 4 4 6 5 4 4 3 5 10 10 8 7 6 7 7 6 8 7 6 7 6 6 4 3 2 3 3 4 4 2 2 3 6 10 4 5 6 5
7 6 6 5 2 1 2 4 4 4 5 6 6 6 8 6 7 6 7 6 6 6 6 4 6 5 6 6 4 5 4 4 4 5 2 4 7 9 8 6 6 6 5
4 3 4 5 5 5 6 5 7 7 7 8 5 5 6 6 4 5 5 5 4 6 6 7 8 7 6 4 5 5 3 2 4 4 4 4 6 4 6 5 5 6 4
6 7 4 4 5 5 6 6 6 7 6 7 7 6 5 3 3 5 5 3 3 2 4 7 5 5 6 5 6 6 5 4 2 3 3 1 2 4 4 3 4 3 5
6 5 3 3 1 3 3 4 4 4 4 5 5 5 5 3 3 3 4 5 3 5 4 4 4 4 6 6 4 6 5 4 4 4 3 1 2 1 2 2 5 2 3
4 3 3 5 5 5 5 6 5 5 5 5 6 5 5 3 5 1 1 2 3 4 4 4 4 4 9 13 13 12 8 7 5 4 3 4 3 3 2 1 1 2 1
3 1 1 1 3 4 4 5 5 5 5 5 5 5 5 5 5 1 3 1 3 4 4 4 4 3 6 6 8 9 6 8 9 6 6 6 4 6 4 3 2 2 3
5 4 4 3 1 2 4 6 6 4 5 5 6 7 6 5 2 5 5 3 3 5 6 5 5 6 6 7 6 6 7 9 7 6 5 5 6 6 7 6 5 3 2
6 3 1 1 2 3 4 5 6 5 5 4 5 5 5 6 9 10 6 4 4 6 6 6 6 7 8 10 5 6 6 6 4 11 7 4 7 9 6 5 3 3 2
5 4 4 4 4 5 5 7 4 4 6 5 6 7 8 8 9 12 8 4 5 5 5 6 10 10 11 9 6 6 6 6 6 4 3 4 7 6 8 5 4 4 3
4 6 6 5 6 5 5 3 4 5 6 6 7 8 9 10 12 13 13 7 8 5 4 4 3 5 6 5 4 5 6 3 6 7 6 6 6 6 4 5 6 4 4
3 3 4 6 6 7 6 6 6 6 7 7 6 7 8 10 12 12 13 15 10 7 5 3 2 3 4 4 3 8 9 6 5 6 7 8 7 7 6 5 6 5 4
4 5 4 5 6 6 7 8 9 7 5 6 5 6 6 4 2 2 5 3 3 3 2 3 4 8 10 7 10 8 5 3 6 8 9 10 9 9 8 4 5 6 5
4 5 5 5 6 6 6 7 7 5 5 5 5 5 5 5 4 2 2 3 6 4 6 5 6 7 7 7 5 5 4 5 6 9 9 10 6 6 7 5 4 7 4
4 5 5 5 5 5 7 5 4 5 2 3 6 6 6 7 6 7 7 4 5 7 5 3 3 3 4 5 6 6 5 5 6 7 9 8 8 8 7 7 7 8 5
8 5 5 4 3 4 5 8 9 11 13 12 11 8 7 11 13 12 8 9 9 4 2 4 4 5 7 8 8 6 5 6 6 7 7 6 7 9 8 4 4 6 8
8 9 7 7 5 4 6 7 9 9 12 14 13 14 9 13 15 14 11 6 7 8 4 6 6 7 8 8 7 6 7 5 6 6 7 6 6 6 9 8 6 3 5
10 10 7 6 4 4 5 6 7 9 10 9 10 9 10 13 11 10 4 2 3 4 5 7 7 7 6 7 7 7 7 5 6 7 7 6 6 7 7 9 9 9 8
9 8 7 8 8 8 9 9 9 9 7 8 7 8 9 8 4 3 3 4 6 6 7 7 7 7 8 8 9 8 9 8 7 7 6 7 7 8 8 7 8 7 9
10 14 12 10 9 10 10 9 7 8 8 7 5 6 9 1 5 5 5 5 7 8 8 8 7 7 6 8 10 8 8 8 8 7 6 5 6 7 7 5 4 4 6
8 8 15 9 9 10 9 9 10 10 9 8 8 7 10 5 9 8 8 7 8 8 9 8 9 9 9 8 7 8 8 8 8 9 8 8 6 7 6 4 4 3 4
9 9 9 9 10 10 10 10 10 11 10 8 7 8 11 8 10 9 10 10 9 9 9 9 9 9 10 9 9 9 9 9 8 8 9 10 9 7 7 7 6 3 4
9 10 10 9 10 11 10 10 9 9 9 9 8 7 8 10 10 11 12 11 10 10 9 9 9 9 10 8 8 10 10 10 10 9 11 10 10 10 9 7 7 5 3
9 10 10 10 9 9 9 10 11 11 10 10 9 9 10 10 11 12 12 12 11 11 11 11 10 12 8 7 6 9 9 8 6 11 16 12 11 11 11 10 9 8 7
9 10 10 10 10 10 10 10 10 10 10 10 10 10 10 10 10 11 12 10 12 12 13 11 9 11 11 16 15 12 11 14 12 13 11 14 15 17 13 12 11 9 7
9 10 9 9 9 9 9 9 9 10 9 10 10 10 10 10 11 10 11 13 10 11 14 8 9 11 12 9 11 12 14 15 14 17 13 12 13 12 12 14 15 8 9
Wind_Direction
127 124 119 86 8 48 33 358 353 14 325 222 173 221 246 240 245 242 230 227 220 231 208 204 227 228 240 236 257 207 192 169 211 289 246 87 348 233 275 213 220 213 217
150 148 157 159 204 211 280 293 287 266 266 274 255 250 277 262 250 248 246 256 233 240 265 214 221 243 237 238 226 233 213 203 192 228 254 167 182 226 240 218 216 219 211
156 176 173 166 194 251 272 255 270 273 276 280 264 275 275 280 305 287 248 262 276 241 239 236 233 218 240 253 256 246 239 242 206 186 241 207 209 226 236 227 216 236 238
45 39 89 212 232 239 262 278 263 257 261 266 267 274 278 299 320 319 318 297 344 274 286 274 246 251 230 230 243 249 246 256 222 264 261 204 233 260 229 212 274 241 254
66 63 50 25 55 244 279 294 303 306 299 304 314 325 322 267 258 293 318 319 233 274 271 276 241 201 331 274 250 256 239 239 227 217 248 215 243 268 253 244 225 236 284
74 67 52 33 26 15 359 347 353 356 350 349 335 328 322 320 13 98 146 355 307 270 255 262 255 224 203 228 242 227 233 238 233 196 206 220 231 195 256 265 186 135 205
120 148 105 59 41 6 358 357 348 350 343 339 330 327 316 314 312 163 142 178 256 277 250 232 240 224 237 237 247 240 241 238 223 210 207 206 213 203 184 233 222 195 204
207 226 241 245 274 354 349 336 333 334 333 326 315 311 310 302 281 193 201 247 247 259 255 231 232 242 244 239 240 237 235 242 222 209 226 227 222 216 189 192 200 190 303
227 260 341 21 342 324 321 304 301 309 310 298 299 311 314 298 230 225 212 251 262 263 253 248 246 252 249 244 244 245 247 240 194 179 176 182 219 234 219 131 186 129 263
67 45 26 9 351 334 308 296 278 275 282 287 285 285 279 277 244 230 219 227 249 249 261 260 251 245 245 255 235 241 250 234 181 172 196 194 188 214 185 173 170 185 178
46 33 13 7 10 341 329 313 306 301 291 283 283 284 280 277 278 256 220 213 221 219 230 262 268 69 59 25 264 266 244 278 225 198 205 201 188 210 219 240 205 184 180
35 13 348 340 328 319 304 298 286 283 281 274 266 274 272 271 269 288 277 224 228 205 214 232 281 213 288 274 266 254 270 288 265 222 214 210 205 201 197 206 226 219 197
338 330 322 308 294 291 293 300 301 290 273 273 263 268 271 272 254 15 28 59 120 290 268 269 285 268 278 275 245 234 245 246 256 243 223 217 207 203 178 175 190 214 200
294 286 285 290 291 286 291 288 283 284 287 284 282 266 265 271 272 253 158 171 198 198 247 253 246 258 243 259 277 252 217 229 250 252 234 225 201 186 192 178 197 185 176
301 296 291 276 281 299 291 286 305 302 292 303 313 306 299 293 269 235 221 210 198 211 210 241 262 248 250 230 229 234 228 225 243 256 245 232 198 182 190 191 195 187 181
345 326 296 301 322 309 305 299 278 278 291 295 277 232 287 267 281 288 276 264 260 223 152 216 238 244 250 249 236 229 218 213 237 255 265 236 204 190 180 152 178 197 197
340 329 320 307 291 315 301 299 304 298 282 289 293 293 270 252 287 298 307 309 201 150 205 214 223 231 243 251 235 224 235 215 215 238 248 228 189 185 183 168 195 198 198
336 328 333 321 308 298 287 295 290 288 292 296 295 289 289 275 275 275 287 193 236 225 235 235 243 243 234 238 248 233 233 219 218 232 225 208 195 184 186 187 192 195 191
321 315 311 305 303 298 294 280 281 284 280 286 291 296 293 310 318 288 204 246 259 250 241 232 224 228 232 230 240 243 226 223 211 209 211 196 183 182 199 208 199 200 190
323 324 325 319 311 305 299 298 308 306 294 279 257 271 296 248 297 281 231 233 242 253 259 254 255 251 242 232 236 234 217 221 214 199 199 195 182 183 176 177 177 188 213
320 315 314 304 308 307 307 308 304 302 290 284 285 280 290 321 304 298 289 264 245 249 255 254 257 253 250 242 229 226 211 217 218 198 188 190 183 170 157 152 150 193 246
317 311 308 303 301 299 297 297 295 288 296 295 300 296 300 294 293 293 293 289 281 275 271 258 253 252 255 246 230 233 219 212 210 196 192 189 178 169 156 165 149 160 204
315 313 309 305 303 295 295 292 291 301 313 313 315 314 310 299 291 289 286 284 285 278 276 277 268 267 252 240 226 224 219 216 214 190 189 189 185 171 170 179 172 148 105
329 326 320 314 310 308 305 304 301 296 298 298 298 300 296 289 284 281 282 282 282 280 275 268 261 258 247 256 255 244 220 210 183 186 179 181 186 178 176 174 182 179 161
339 334 330 327 325 322 320 319 319 316 312 307 302 293 289 296 293 288 286 282 283 276 277 277 267 245 249 253 242 232 216 197 180 178 186 181 182 181 183 181 184 186 180
347 340 337 338 331 325 320 317 316 316 320 323 316 311 310 314 305 307 314 304 314 320 304 294 290 276 266 263 246 242 219 195 179 182 183 186 180 185 175 173 178 189 186